Time,TemperatureF,DewpointF,PressureIn,WindDirection,WindDirectionDegrees,WindSpeedMPH,WindSpeedGustMPH,Humidity,HourlyPrecipIn,Conditions,Clouds,dailyrainin,SoftwareType,DateUTC
2013-01-20 00:00:00,48.0,20.9,29.26,NNE,26,0.0,0.0,34,0.00,SKC,SKC,0.00,WeatherDisplay:10.37,2013-01-20 08:00:00,
2013-01-20 00:05:00,48.2,21.1,29.26,NNE,26,0.0,3.0,34,0.00,SKC,SKC,0.00,WeatherDisplay:10.37,2013-01-20 08:05:00,
2013-01-20 00:10:00,48.2,21.1,29.26,NNE,26,2.0,3.0,34,0.00,SKC,SKC,0.00,WeatherDisplay:10.37,2013-01-20 08:10:00,
2013-01-20 00:15:00,48.6,21.4,29.26,NNE,26,2.0,3.0,34,0.00,SKC,SKC,0.00,WeatherDisplay:10.37,2013-01-20 08:15:00,
2013-01-20 00:20:00,48.6,21.4,29.26,NNE,26,0.0,4.0,34,0.00,SKC,SKC,0.00,WeatherDisplay:10.37,2013-01-20 08:20:00,
2013-01-20 00:25:00,48.6,21.4,29.26,NNE,26,1.0,3.0,34,0.00,SKC,SKC,0.00,WeatherDisplay:10.37,2013-01-20 08:25:00,
2013-01-20 00:30:00,48.6,21.4,29.26,NNE,26,2.0,3.0,34,0.00,SKC,SKC,0.00,WeatherDisplay:10.37,2013-01-20 08:30:00,
2013-01-20 00:35:00,48.6,21.4,29.26,NNE,26,0.0,4.0,34,0.00,SKC,SKC,0.00,WeatherDisplay:10.37,2013-01-20 08:35:00,
2013-01-20 00:40:00,48.6,21.4,29.26,NNE,27,0.0,0.0,34,0.00,SKC,SKC,0.00,WeatherDisplay:10.37,2013-01-20 08:40:00,
2013-01-20 00:45:00,48.6,21.4,29.26,NNE,27,0.0,3.0,34,0.00,SKC,SKC,0.00,WeatherDisplay:10.37,2013-01-20 08:45:00,
2013-01-20 00:50:00,48.7,21.5,29.26,NNE,27,0.0,3.0,34,0.00,SKC,SKC,0.00,WeatherDisplay:10.37,2013-01-20 08:50:00,
2013-01-20 00:55:00,48.7,21.6,29.26,NNE,27,0.0,3.0,34,0.00,SKC,SKC,0.00,WeatherDisplay:10.37,2013-01-20 08:55:00,
2013-01-20 01:00:00,48.6,21.4,29.26,NNE,27,0.0,0.0,34,0.00,SKC,SKC,0.00,WeatherDisplay:10.37,2013-01-20 09:00:00,
2013-01-20 01:05:00,48.6,21.4,29.26,NNE,27,0.0,0.0,34,0.00,SKC,SKC,0.00,WeatherDisplay:10.37,2013-01-20 09:05:00,
2013-01-20 01:10:00,48.4,21.3,29.26,NNE,27,0.0,0.0,34,0.00,SKC,SKC,0.00,WeatherDisplay:10.37,2013-01-20 09:10:00,
2013-01-20 01:20:00,48.3,21.2,29.26,NNE,27,0.0,0.0,34,0.00,SKC,SKC,0.00,WeatherDisplay:10.37,2013-01-20 09:20:00,
2013-01-20 01:25:00,48.6,21.4,29.26,NNE,27,0.0,0.0,34,0.00,SKC,SKC,0.00,WeatherDisplay:10.37,2013-01-20 09:25:00,
2013-01-20 01:30:00,48.6,21.4,29.26,NNE,27,0.0,0.0,34,0.00,SKC,SKC,0.00,WeatherDisplay:10.37,2013-01-20 09:30:00,
2013-01-20 01:35:00,48.4,19.1,29.26,NNE,27,0.0,0.0,31,0.00,SKC,SKC,0.00,WeatherDisplay:10.37,2013-01-20 09:35:00,
2013-01-20 01:40:00,48.4,19.1,29.26,NNE,27,0.0,0.0,31,0.00,SKC,SKC,0.00,WeatherDisplay:10.37,2013-01-20 09:40:00,
2013-01-20 01:45:00,48.6,19.2,29.26,NNE,27,0.0,0.0,31,0.00,SKC,SKC,0.00,WeatherDisplay:10.37,2013-01-20 09:45:00,
2013-01-20 01:50:00,48.7,19.4,29.26,NNE,27,0.0,0.0,31,0.00,SKC,SKC,0.00,WeatherDisplay:10.37,2013-01-20 09:50:00,
2013-01-20 01:55:00,48.8,19.5,29.26,NNE,27,0.0,0.0,31,0.00,SKC,SKC,0.00,WeatherDisplay:10.37,2013-01-20 09:55:00,
2013-01-20 02:00:00,49.1,19.7,29.26,NNE,27,0.0,0.0,31,0.00,SKC,SKC,0.00,WeatherDisplay:10.37,2013-01-20 10:00:00,
2013-01-20 02:05:00,49.1,19.7,29.26,NNE,27,0.0,0.0,31,0.00,SKC,SKC,0.00,WeatherDisplay:10.37,2013-01-20 10:05:00,
2013-01-20 02:10:00,49.1,19.7,29.26,NNE,27,0.0,0.0,31,0.00,SKC,SKC,0.00,WeatherDisplay:10.37,2013-01-20 10:10:00,
2013-01-20 02:15:00,48.7,19.4,29.26,NNE,27,0.0,0.0,31,0.00,SKC,SKC,0.00,WeatherDisplay:10.37,2013-01-20 10:15:00,
2013-01-20 02:20:00,48.1,19.6,29.26,NNE,27,0.0,0.0,32,0.00,SKC,SKC,0.00,WeatherDisplay:10.37,2013-01-20 10:20:00,
2013-01-20 02:25:00,47.8,19.3,29.26,NNE,27,0.0,0.0,32,0.00,SKC,SKC,0.00,WeatherDisplay:10.37,2013-01-20 10:25:00,
2013-01-20 02:30:00,47.7,19.2,29.26,NNE,27,0.0,0.0,32,0.00,SKC,SKC,0.00,WeatherDisplay:10.37,2013-01-20 10:30:00,
2013-01-20 02:35:00,47.5,19.0,29.26,NNE,27,0.0,0.0,32,0.00,SKC,SKC,0.00,WeatherDisplay:10.37,2013-01-20 10:35:00,
2013-01-20 02:40:00,47.7,19.2,29.26,NNE,27,0.0,0.0,32,0.00,SKC,SKC,0.00,WeatherDisplay:10.37,2013-01-20 10:40:00,
2013-01-20 02:45:00,47.8,19.4,29.26,NNE,27,0.0,0.0,32,0.00,SKC,SKC,0.00,WeatherDisplay:10.37,2013-01-20 10:45:00,
2013-01-20 02:50:00,47.7,19.2,29.26,NNE,27,0.0,0.0,32,0.00,SKC,SKC,0.00,WeatherDisplay:10.37,2013-01-20 10:50:00,
2013-01-20 02:55:00,47.7,19.2,29.26,NNE,27,0.0,0.0,32,0.00,SKC,SKC,0.00,WeatherDisplay:10.37,2013-01-20 10:55:00,
2013-01-20 03:00:00,47.8,19.4,29.26,NNE,27,0.0,0.0,32,0.00,SKC,SKC,0.00,WeatherDisplay:10.37,2013-01-20 11:00:00,
2013-01-20 03:05:00,47.8,19.4,29.26,NNE,27,0.0,0.0,32,0.00,SKC,SKC,0.00,WeatherDisplay:10.37,2013-01-20 11:05:00,
2013-01-20 03:10:00,47.6,19.2,29.26,NNE,27,0.0,0.0,32,0.00,SKC,SKC,0.00,WeatherDisplay:10.37,2013-01-20 11:10:00,
2013-01-20 03:20:00,47.3,18.9,29.26,NNE,27,0.0,0.0,32,0.00,SKC,SKC,0.00,WeatherDisplay:10.37,2013-01-20 11:20:00,
2013-01-20 03:30:00,46.9,18.6,29.26,North,7,2.0,3.0,32,0.00,SKC,SKC,0.00,WeatherDisplay:10.37,2013-01-20 11:30:00,
2013-01-20 03:40:00,46.6,18.3,29.24,North,2,2.0,3.0,32,0.00,SKC,SKC,0.00,WeatherDisplay:10.37,2013-01-20 11:40:00,
2013-01-20 03:45:00,46.2,17.9,29.24,North,359,2.0,3.0,32,0.00,SKC,SKC,0.00,WeatherDisplay:10.37,2013-01-20 11:45:00,
2013-01-20 03:50:00,46.0,17.8,29.24,North,1,2.0,3.0,32,0.00,SKC,SKC,0.00,WeatherDisplay:10.37,2013-01-20 11:50:00,
2013-01-20 03:55:00,45.9,17.6,29.26,North,1,0.0,3.0,32,0.00,SKC,SKC,0.00,WeatherDisplay:10.37,2013-01-20 11:55:00,
2013-01-20 04:00:00,45.7,17.5,29.26,North,1,0.0,3.0,32,0.00,SKC,SKC,0.00,WeatherDisplay:10.37,2013-01-20 12:00:00,
2013-01-20 04:05:00,45.9,17.6,29.26,North,1,0.0,0.0,32,0.00,SKC,SKC,0.00,WeatherDisplay:10.37,2013-01-20 12:05:00,
2013-01-20 04:15:00,46.0,19.9,29.26,North,1,0.0,0.0,35,0.00,SKC,SKC,0.00,WeatherDisplay:10.37,2013-01-20 12:15:00,
2013-01-20 04:20:00,46.0,17.8,29.26,North,1,0.0,0.0,32,0.00,SKC,SKC,0.00,WeatherDisplay:10.37,2013-01-20 12:20:00,
2013-01-20 04:25:00,45.9,17.6,29.26,North,1,0.0,0.0,32,0.00,SKC,SKC,0.00,WeatherDisplay:10.37,2013-01-20 12:25:00,
2013-01-20 04:35:00,46.0,17.8,29.26,North,1,0.0,4.0,32,0.00,SKC,SKC,0.00,WeatherDisplay:10.37,2013-01-20 12:35:00,
2013-01-20 04:40:00,46.0,17.8,29.26,North,1,0.0,0.0,32,0.00,SKC,SKC,0.00,WeatherDisplay:10.37,2013-01-20 12:40:00,
2013-01-20 04:50:00,46.0,17.8,29.26,North,1,0.0,0.0,32,0.00,SKC,SKC,0.00,WeatherDisplay:10.37,2013-01-20 12:50:00,
2013-01-20 04:55:00,46.0,17.8,29.26,North,1,0.0,0.0,32,0.00,SKC,SKC,0.00,WeatherDisplay:10.37,2013-01-20 12:55:00,
2013-01-20 05:05:00,46.2,17.9,29.26,North,1,0.0,0.0,32,0.00,SKC,SKC,0.00,WeatherDisplay:10.37,2013-01-20 13:05:00,
2013-01-20 05:10:00,46.3,18.0,29.26,North,1,0.0,0.0,32,0.00,SKC,SKC,0.00,WeatherDisplay:10.37,2013-01-20 13:10:00,
2013-01-20 05:15:00,46.6,18.3,29.26,North,1,0.0,0.0,32,0.00,SKC,SKC,0.00,WeatherDisplay:10.37,2013-01-20 13:15:00,
2013-01-20 05:20:00,46.6,19.7,29.26,North,1,0.0,0.0,34,0.00,SKC,SKC,0.00,WeatherDisplay:10.37,2013-01-20 13:20:00,
2013-01-20 05:25:00,46.4,19.5,29.24,North,1,0.0,0.0,34,0.00,SKC,SKC,0.00,WeatherDisplay:10.37,2013-01-20 13:25:00,
2013-01-20 05:30:00,46.4,19.5,29.24,North,1,0.0,0.0,34,0.00,SKC,SKC,0.00,WeatherDisplay:10.37,2013-01-20 13:30:00,
2013-01-20 05:35:00,46.2,20.0,29.24,North,1,0.0,0.0,35,0.00,SKC,SKC,0.00,WeatherDisplay:10.37,2013-01-20 13:35:00,
2013-01-20 05:45:00,45.5,19.4,29.24,North,1,0.0,0.0,35,0.00,SKC,SKC,0.00,WeatherDisplay:10.37,2013-01-20 13:45:00,
2013-01-20 05:50:00,45.9,19.7,29.24,North,1,0.0,0.0,35,0.00,SKC,SKC,0.00,WeatherDisplay:10.37,2013-01-20 13:50:00,
2013-01-20 05:55:00,45.6,19.5,29.26,North,1,0.0,0.0,35,0.00,SKC,SKC,0.00,WeatherDisplay:10.37,2013-01-20 13:55:00,
2013-01-20 06:00:00,45.0,17.6,29.26,North,1,0.0,0.0,33,0.00,SKC,SKC,0.00,WeatherDisplay:10.37,2013-01-20 14:00:00,
2013-01-20 06:05:00,44.6,16.5,29.26,North,1,0.0,0.0,32,0.00,SKC,SKC,0.00,WeatherDisplay:10.37,2013-01-20 14:05:00,
2013-01-20 06:10:00,44.3,17.0,29.26,North,1,0.0,0.0,33,0.00,SKC,SKC,0.00,WeatherDisplay:10.37,2013-01-20 14:10:00,
2013-01-20 06:15:00,44.2,18.3,29.26,North,1,0.0,0.0,35,0.00,SKC,SKC,0.00,WeatherDisplay:10.37,2013-01-20 14:15:00,
2013-01-20 06:20:00,44.1,18.1,29.26,North,1,0.0,0.0,35,0.00,SKC,SKC,0.00,WeatherDisplay:10.37,2013-01-20 14:20:00,
2013-01-20 06:25:00,44.1,16.8,29.26,North,1,0.0,0.0,33,0.00,SKC,SKC,0.00,WeatherDisplay:10.37,2013-01-20 14:25:00,
2013-01-20 06:30:00,44.1,16.8,29.26,North,1,0.0,0.0,33,0.00,SKC,SKC,0.00,WeatherDisplay:10.37,2013-01-20 14:30:00,
2013-01-20 06:35:00,44.1,16.8,29.26,North,1,0.0,0.0,33,0.00,SKC,SKC,0.00,WeatherDisplay:10.37,2013-01-20 14:35:00,
2013-01-20 06:40:00,44.4,17.1,29.26,North,1,0.0,0.0,33,0.00,SKC,SKC,0.00,WeatherDisplay:10.37,2013-01-20 14:40:00,
2013-01-20 06:50:00,44.2,18.3,29.26,NNE,14,1.0,3.0,35,0.00,SKC,SKC,0.00,WeatherDisplay:10.37,2013-01-20 14:50:00,
2013-01-20 06:55:00,44.2,16.9,29.26,NNE,15,0.0,3.0,33,0.00,SKC,SKC,0.00,WeatherDisplay:10.37,2013-01-20 14:55:00,
2013-01-20 07:00:00,44.2,16.9,29.26,NNE,16,0.0,0.0,33,0.00,SKC,SKC,0.00,WeatherDisplay:10.37,2013-01-20 15:00:00,
2013-01-20 07:05:00,44.1,16.8,29.26,NNE,16,0.0,0.0,33,0.00,SKC,SKC,0.00,WeatherDisplay:10.37,2013-01-20 15:05:00,
2013-01-20 07:10:00,44.1,16.8,29.26,NNE,16,1.0,3.0,33,0.00,SKC,SKC,0.00,WeatherDisplay:10.37,2013-01-20 15:10:00,
2013-01-20 07:20:00,44.0,16.7,29.26,NNE,16,0.0,0.0,33,0.00,SKC,SKC,0.00,WeatherDisplay:10.37,2013-01-20 15:20:00,
2013-01-20 07:25:00,44.1,16.8,29.26,NNE,16,1.0,3.0,33,0.00,SKC,SKC,0.00,WeatherDisplay:10.37,2013-01-20 15:25:00,
2013-01-20 07:30:00,44.1,16.8,29.26,NNE,16,0.0,0.0,33,0.00,SKC,SKC,0.00,WeatherDisplay:10.37,2013-01-20 15:30:00,
2013-01-20 07:35:00,43.9,16.6,29.26,NNE,16,0.0,0.0,33,0.00,SKC,SKC,0.00,WeatherDisplay:10.37,2013-01-20 15:35:00,
2013-01-20 07:40:00,43.7,16.4,29.26,NNE,16,0.0,0.0,33,0.00,SKC,SKC,0.00,WeatherDisplay:10.37,2013-01-20 15:40:00,
2013-01-20 07:45:00,44.2,16.9,29.26,NNE,16,0.0,2.0,33,0.00,SKC,SKC,0.00,WeatherDisplay:10.37,2013-01-20 15:45:00,
2013-01-20 07:50:00,45.8,17.6,29.26,NNE,25,0.0,3.0,32,0.00,SKC,SKC,0.00,WeatherDisplay:10.37,2013-01-20 15:50:00,
2013-01-20 07:55:00,48.1,19.6,29.26,NE,36,0.0,3.0,32,0.00,SKC,SKC,0.00,WeatherDisplay:10.37,2013-01-20 15:55:00,
2013-01-20 08:00:00,50.8,21.2,29.26,NE,37,0.0,0.0,31,0.00,SKC,SKC,0.00,WeatherDisplay:10.37,2013-01-20 16:00:00,
2013-01-20 08:05:00,52.5,22.7,29.26,NE,36,0.0,0.0,31,0.00,SKC,SKC,0.00,WeatherDisplay:10.37,2013-01-20 16:05:00,
2013-01-20 08:10:00,52.4,22.6,29.26,NE,36,0.0,0.0,31,0.00,SKC,SKC,0.00,WeatherDisplay:10.37,2013-01-20 16:10:00,
2013-01-20 08:15:00,51.4,21.8,29.26,NE,36,0.0,0.0,31,0.00,SKC,SKC,0.00,WeatherDisplay:10.37,2013-01-20 16:15:00,
2013-01-20 08:20:00,50.6,21.1,29.26,NE,36,0.0,0.0,31,0.00,SKC,SKC,0.00,WeatherDisplay:10.37,2013-01-20 16:20:00,
2013-01-20 08:25:00,50.2,20.7,29.26,NE,36,0.0,0.0,31,0.00,SKC,SKC,0.00,WeatherDisplay:10.37,2013-01-20 16:25:00,
2013-01-20 08:30:00,50.2,20.7,29.26,NE,36,0.0,0.0,31,0.00,SKC,SKC,0.00,WeatherDisplay:10.37,2013-01-20 16:30:00,
2013-01-20 08:35:00,50.0,20.5,29.26,NNE,15,0.0,0.0,31,0.00,SKC,SKC,0.00,WeatherDisplay:10.37,2013-01-20 16:35:00,
2013-01-20 08:40:00,50.2,20.6,29.26,NNW,337,0.0,0.0,31,0.00,SKC,SKC,0.00,WeatherDisplay:10.37,2013-01-20 16:40:00,
2013-01-20 08:45:00,50.2,20.7,29.26,NW,324,0.0,0.0,31,0.00,SKC,SKC,0.00,WeatherDisplay:10.37,2013-01-20 16:45:00,
2013-01-20 08:50:00,50.2,21.4,29.26,WNW,293,0.0,0.0,32,0.00,SKC,SKC,0.00,WeatherDisplay:10.37,2013-01-20 16:50:00,
2013-01-20 08:55:00,50.2,22.9,29.26,WSW,246,0.0,0.0,34,0.00,SKC,SKC,0.00,WeatherDisplay:10.37,2013-01-20 16:55:00,
2013-01-20 09:00:00,50.4,21.6,29.26,WSW,237,0.0,0.0,32,0.00,SKC,SKC,0.00,WeatherDisplay:10.37,2013-01-20 17:00:00,
2013-01-20 09:05:00,50.8,21.2,29.26,WSW,237,0.0,0.0,31,0.00,SKC,SKC,0.00,WeatherDisplay:10.37,2013-01-20 17:05:00,
2013-01-20 09:10:00,51.6,24.1,29.26,WSW,237,0.0,0.0,34,0.00,SKC,SKC,0.00,WeatherDisplay:10.37,2013-01-20 17:10:00,
2013-01-20 09:20:00,52.9,23.0,29.26,SSE,159,0.0,0.0,31,0.00,SKC,SKC,0.00,WeatherDisplay:10.37,2013-01-20 17:20:00,
2013-01-20 09:30:00,54.0,23.2,29.26,ESE,120,0.0,0.0,30,0.00,SKC,SKC,0.00,WeatherDisplay:10.37,2013-01-20 17:30:00,
2013-01-20 09:35:00,54.3,23.5,29.26,SE,146,1.0,3.0,30,0.00,SKC,SKC,0.00,WeatherDisplay:10.37,2013-01-20 17:35:00,
2013-01-20 09:40:00,54.3,23.5,29.26,SSE,168,0.0,3.0,30,0.00,SKC,SKC,0.00,WeatherDisplay:10.37,2013-01-20 17:40:00,
2013-01-20 09:45:00,54.5,23.7,29.26,South,170,0.0,4.0,30,0.00,SKC,SKC,0.00,WeatherDisplay:10.37,2013-01-20 17:45:00,
2013-01-20 09:50:00,54.7,23.8,29.26,South,169,0.0,4.0,30,0.00,SKC,SKC,0.00,WeatherDisplay:10.37,2013-01-20 17:50:00,
2013-01-20 09:55:00,55.0,24.1,29.26,South,174,0.0,4.0,30,0.00,SKC,SKC,0.00,WeatherDisplay:10.37,2013-01-20 17:55:00,
2013-01-20 10:00:00,55.4,26.0,29.26,South,185,1.0,4.0,32,0.00,SKC,SKC,0.00,WeatherDisplay:10.37,2013-01-20 18:00:00,
2013-01-20 10:05:00,55.8,26.4,29.26,South,182,2.0,4.0,32,0.00,SKC,SKC,0.00,WeatherDisplay:10.37,2013-01-20 18:05:00,
2013-01-20 10:10:00,56.3,26.8,29.26,South,179,2.0,4.0,32,0.00,SKC,SKC,0.00,WeatherDisplay:10.37,2013-01-20 18:10:00,
2013-01-20 10:15:00,56.7,27.1,29.26,SSW,204,2.0,4.0,32,0.00,SKC,SKC,0.00,WeatherDisplay:10.37,2013-01-20 18:15:00,
2013-01-20 10:20:00,57.1,27.5,29.26,SSW,206,1.0,4.0,32,0.00,SKC,SKC,0.00,WeatherDisplay:10.37,2013-01-20 18:20:00,
2013-01-20 10:25:00,57.2,27.6,29.26,South,179,3.0,5.0,32,0.00,SKC,SKC,0.00,WeatherDisplay:10.37,2013-01-20 18:25:00,
2013-01-20 10:30:00,57.2,27.6,29.26,South,179,3.0,6.0,32,0.00,SKC,SKC,0.00,WeatherDisplay:10.37,2013-01-20 18:30:00,
2013-01-20 10:40:00,57.4,27.7,29.26,South,187,3.0,4.0,32,0.00,SKC,SKC,0.00,WeatherDisplay:10.37,2013-01-20 18:40:00,
2013-01-20 10:45:00,57.7,28.0,29.26,South,188,3.0,5.0,32,0.00,SKC,SKC,0.00,WeatherDisplay:10.37,2013-01-20 18:45:00,
2013-01-20 10:50:00,57.9,28.2,29.26,South,185,2.0,6.0,32,0.00,SKC,SKC,0.00,WeatherDisplay:10.37,2013-01-20 18:50:00,
2013-01-20 10:55:00,58.1,28.4,29.26,South,181,2.0,7.0,32,0.00,SKC,SKC,0.00,WeatherDisplay:10.37,2013-01-20 18:55:00,
2013-01-20 11:00:00,58.7,28.9,29.26,South,169,1.0,6.0,32,0.00,SKC,SKC,0.00,WeatherDisplay:10.37,2013-01-20 19:00:00,
2013-01-20 11:05:00,58.8,29.0,29.26,South,174,2.0,4.0,32,0.00,SKC,SKC,0.00,WeatherDisplay:10.37,2013-01-20 19:05:00,
2013-01-20 11:10:00,59.4,29.5,29.26,South,178,2.0,6.0,32,0.00,SKC,SKC,0.00,WeatherDisplay:10.37,2013-01-20 19:10:00,
2013-01-20 11:15:00,60.0,30.0,29.26,South,175,0.0,4.0,32,0.00,SKC,SKC,0.00,WeatherDisplay:10.37,2013-01-20 19:15:00,
2013-01-20 11:20:00,60.3,30.3,29.26,South,178,3.0,5.0,32,0.00,SKC,SKC,0.00,WeatherDisplay:10.37,2013-01-20 19:20:00,
2013-01-20 11:25:00,60.4,28.0,29.26,South,174,2.0,4.0,29,0.00,SKC,SKC,0.00,WeatherDisplay:10.37,2013-01-20 19:25:00,
2013-01-20 11:30:00,61.1,30.2,29.26,South,184,3.0,4.0,31,0.00,SKC,SKC,0.00,WeatherDisplay:10.37,2013-01-20 19:30:00,
2013-01-20 11:35:00,61.1,30.2,29.26,SSW,199,3.0,5.0,31,0.00,SKC,SKC,0.00,WeatherDisplay:10.37,2013-01-20 19:35:00,
2013-01-20 11:40:00,61.3,30.4,29.26,SSW,194,0.0,4.0,31,0.00,SKC,SKC,0.00,WeatherDisplay:10.37,2013-01-20 19:40:00,
2013-01-20 11:50:00,61.4,29.7,29.26,SSW,195,1.0,5.0,30,0.00,SKC,SKC,0.00,WeatherDisplay:10.37,2013-01-20 19:50:00,
2013-01-20 11:55:00,62.2,31.2,29.24,South,185,0.0,4.0,31,0.00,SKC,SKC,0.00,WeatherDisplay:10.37,2013-01-20 19:55:00,
2013-01-20 12:00:00,62.7,31.6,29.24,SSW,207,2.0,4.0,31,0.00,SKC,SKC,0.00,WeatherDisplay:10.37,2013-01-20 20:00:00,
2013-01-20 12:05:00,62.5,30.6,29.24,SW,220,2.0,5.0,30,0.00,SKC,SKC,0.00,WeatherDisplay:10.37,2013-01-20 20:05:00,
2013-01-20 12:10:00,62.9,31.8,29.24,SSW,212,1.0,4.0,31,0.00,SKC,SKC,0.00,WeatherDisplay:10.37,2013-01-20 20:10:00,
2013-01-20 12:15:00,63.2,32.0,29.24,SSW,205,2.0,4.0,31,0.00,SKC,SKC,0.00,WeatherDisplay:10.37,2013-01-20 20:15:00,
2013-01-20 12:20:00,63.1,29.5,29.24,SW,229,3.0,5.0,28,0.00,SKC,SKC,0.00,WeatherDisplay:10.37,2013-01-20 20:20:00,
2013-01-20 12:25:00,63.8,32.6,29.24,WSW,241,1.0,4.0,31,0.00,SKC,SKC,0.00,WeatherDisplay:10.37,2013-01-20 20:25:00,
2013-01-20 12:30:00,64.0,32.7,29.24,SW,221,3.0,5.0,31,0.00,SKC,SKC,0.00,WeatherDisplay:10.37,2013-01-20 20:30:00,
2013-01-20 12:35:00,63.5,29.8,29.24,SW,216,2.0,6.0,28,0.00,SKC,SKC,0.00,WeatherDisplay:10.37,2013-01-20 20:35:00,
2013-01-20 12:40:00,63.9,30.1,29.24,SSW,201,2.0,4.0,28,0.00,SKC,SKC,0.00,WeatherDisplay:10.37,2013-01-20 20:40:00,
2013-01-20 12:45:00,64.5,32.3,29.24,SSW,212,2.0,4.0,30,0.00,SKC,SKC,0.00,WeatherDisplay:10.37,2013-01-20 20:45:00,
2013-01-20 12:50:00,64.6,32.4,29.24,SW,229,3.0,6.0,30,0.00,SKC,SKC,0.00,WeatherDisplay:10.37,2013-01-20 20:50:00,
2013-01-20 13:00:00,64.3,32.2,29.24,SSW,208,3.0,6.0,30,0.00,SKC,SKC,0.00,WeatherDisplay:10.37,2013-01-20 21:00:00,
2013-01-20 13:05:00,64.4,30.6,29.24,SSW,207,0.0,3.0,28,0.00,SKC,SKC,0.00,WeatherDisplay:10.37,2013-01-20 21:05:00,
2013-01-20 13:10:00,65.3,33.0,29.20,South,183,0.0,0.0,30,0.00,SKC,SKC,0.00,WeatherDisplay:10.37,2013-01-20 21:10:00,
2013-01-20 13:20:00,65.7,33.4,29.20,WSW,239,1.0,3.0,30,0.00,SKC,SKC,0.00,WeatherDisplay:10.37,2013-01-20 21:20:00,
2013-01-20 13:25:00,65.9,33.6,29.20,SW,227,1.0,4.0,30,0.00,SKC,SKC,0.00,WeatherDisplay:10.37,2013-01-20 21:25:00,
2013-01-20 13:30:00,66.0,33.7,29.20,SW,225,3.0,4.0,30,0.00,SKC,SKC,0.00,WeatherDisplay:10.37,2013-01-20 21:30:00,
2013-01-20 13:35:00,65.8,33.5,29.20,SW,218,2.0,5.0,30,0.00,SKC,SKC,0.00,WeatherDisplay:10.37,2013-01-20 21:35:00,
2013-01-20 13:40:00,65.8,33.5,29.20,SSW,206,1.0,5.0,30,0.00,SKC,SKC,0.00,WeatherDisplay:10.37,2013-01-20 21:40:00,
2013-01-20 13:45:00,65.7,33.4,29.20,SSW,208,3.0,6.0,30,0.00,SKC,SKC,0.00,WeatherDisplay:10.37,2013-01-20 21:45:00,
2013-01-20 13:50:00,65.3,31.3,29.20,SW,229,2.0,6.0,28,0.00,SKC,SKC,0.00,WeatherDisplay:10.37,2013-01-20 21:50:00,
2013-01-20 13:55:00,65.6,33.3,29.20,SW,227,3.0,5.0,30,0.00,SKC,SKC,0.00,WeatherDisplay:10.37,2013-01-20 21:55:00,
2013-01-20 14:00:00,65.3,31.3,29.20,SSW,204,3.0,6.0,28,0.00,SKC,SKC,0.00,WeatherDisplay:10.37,2013-01-20 22:00:00,
2013-01-20 14:05:00,64.8,30.9,29.20,SSW,199,3.0,6.0,28,0.00,SKC,SKC,0.00,WeatherDisplay:10.37,2013-01-20 22:05:00,
2013-01-20 14:10:00,64.8,30.9,29.20,SSW,200,2.0,6.0,28,0.00,SKC,SKC,0.00,WeatherDisplay:10.37,2013-01-20 22:10:00,
2013-01-20 14:15:00,64.6,30.7,29.20,SSW,210,5.0,8.0,28,0.00,SKC,SKC,0.00,WeatherDisplay:10.37,2013-01-20 22:15:00,
2013-01-20 14:20:00,63.9,30.1,29.20,SW,227,3.0,6.0,28,0.00,SKC,SKC,0.00,WeatherDisplay:10.37,2013-01-20 22:20:00,
2013-01-20 14:30:00,63.3,29.6,29.20,SW,226,5.0,6.0,28,0.00,SKC,SKC,0.00,WeatherDisplay:10.37,2013-01-20 22:30:00,
2013-01-20 14:40:00,63.1,29.5,29.20,SW,221,3.0,5.0,28,0.00,SKC,SKC,0.00,WeatherDisplay:10.37,2013-01-20 22:40:00,
2013-01-20 14:45:00,63.1,29.5,29.20,SW,217,3.0,6.0,28,0.00,SKC,SKC,0.00,WeatherDisplay:10.37,2013-01-20 22:45:00,
2013-01-20 14:50:00,63.1,30.3,29.20,SW,227,3.0,7.0,29,0.00,SKC,SKC,0.00,WeatherDisplay:10.37,2013-01-20 22:50:00,
2013-01-20 14:55:00,63.1,29.5,29.20,SW,220,3.0,6.0,28,0.00,SKC,SKC,0.00,WeatherDisplay:10.37,2013-01-20 22:55:00,
2013-01-20 15:00:00,63.0,29.3,29.20,SSW,212,3.0,5.0,28,0.00,SKC,SKC,0.00,WeatherDisplay:10.37,2013-01-20 23:00:00,
2013-01-20 15:05:00,62.7,30.8,29.20,SSW,203,2.0,6.0,30,0.00,SKC,SKC,0.00,WeatherDisplay:10.37,2013-01-20 23:05:00,
2013-01-20 15:10:00,62.8,29.2,29.20,SSW,199,3.0,6.0,28,0.00,SKC,SKC,0.00,WeatherDisplay:10.37,2013-01-20 23:10:00,
2013-01-20 15:15:00,63.1,29.5,29.20,SSW,204,2.0,5.0,28,0.00,SKC,SKC,0.00,WeatherDisplay:10.37,2013-01-20 23:15:00,
2013-01-20 15:20:00,63.3,29.6,29.20,SSW,212,3.0,6.0,28,0.00,SKC,SKC,0.00,WeatherDisplay:10.37,2013-01-20 23:20:00,
2013-01-20 15:25:00,63.2,29.5,29.18,SSW,205,2.0,5.0,28,0.00,SKC,SKC,0.00,WeatherDisplay:10.37,2013-01-20 23:25:00,
2013-01-20 15:30:00,63.1,29.5,29.18,SW,219,2.0,6.0,28,0.00,SKC,SKC,0.00,WeatherDisplay:10.37,2013-01-20 23:30:00,
2013-01-20 15:35:00,63.3,29.6,29.18,SW,221,3.0,4.0,28,0.00,SKC,SKC,0.00,WeatherDisplay:10.37,2013-01-20 23:35:00,
2013-01-20 15:40:00,63.6,29.9,29.20,SSW,209,2.0,4.0,28,0.00,SKC,SKC,0.00,WeatherDisplay:10.37,2013-01-20 23:40:00,
2013-01-20 15:50:00,63.9,30.1,29.20,SSW,208,1.0,4.0,28,0.00,SKC,SKC,0.00,WeatherDisplay:10.37,2013-01-20 23:50:00,
2013-01-20 16:00:00,63.7,29.9,29.18,SSW,197,2.0,4.0,28,0.00,SKC,SKC,0.00,WeatherDisplay:10.37,2013-01-21 00:00:00,
2013-01-20 16:05:00,63.4,29.7,29.18,SSW,199,3.0,4.0,28,0.00,SKC,SKC,0.00,WeatherDisplay:10.37,2013-01-21 00:05:00,
2013-01-20 16:10:00,63.1,29.5,29.18,SSW,203,2.0,4.0,28,0.00,SKC,SKC,0.00,WeatherDisplay:10.37,2013-01-21 00:10:00,
2013-01-20 16:15:00,63.0,29.3,29.18,SSW,202,3.0,4.0,28,0.00,SKC,SKC,0.00,WeatherDisplay:10.37,2013-01-21 00:15:00,
2013-01-20 16:20:00,62.8,29.1,29.18,SSW,202,3.0,5.0,28,0.00,SKC,SKC,0.00,WeatherDisplay:10.37,2013-01-21 00:20:00,
2013-01-20 16:25:00,62.2,29.5,29.20,SSW,203,3.0,4.0,29,0.00,SKC,SKC,0.00,WeatherDisplay:10.37,2013-01-21 00:25:00,
2013-01-20 16:30:00,61.7,29.1,29.20,SSW,203,3.0,4.0,29,0.00,SKC,SKC,0.00,WeatherDisplay:10.37,2013-01-21 00:30:00,
2013-01-20 16:35:00,61.3,28.7,29.20,SSW,203,2.0,4.0,29,0.00,SKC,SKC,0.00,WeatherDisplay:10.37,2013-01-21 00:35:00,
2013-01-20 16:40:00,60.8,28.3,29.20,SSW,204,3.0,4.0,29,0.00,SKC,SKC,0.00,WeatherDisplay:10.37,2013-01-21 00:40:00,
2013-01-20 16:45:00,60.3,27.9,29.20,SSW,204,3.0,4.0,29,0.00,SKC,SKC,0.00,WeatherDisplay:10.37,2013-01-21 00:45:00,
2013-01-20 16:50:00,59.8,27.4,29.20,SSW,203,2.0,4.0,29,0.00,SKC,SKC,0.00,WeatherDisplay:10.37,2013-01-21 00:50:00,
2013-01-20 16:55:00,59.2,26.9,29.20,SSW,203,3.0,4.0,29,0.00,SKC,SKC,0.00,WeatherDisplay:10.37,2013-01-21 00:55:00,
2013-01-20 17:00:00,58.5,26.3,29.20,SSW,203,2.0,3.0,29,0.00,SKC,SKC,0.00,WeatherDisplay:10.37,2013-01-21 01:00:00,
2013-01-20 17:05:00,57.8,25.7,29.20,SSW,203,2.0,3.0,29,0.00,SKC,SKC,0.00,WeatherDisplay:10.37,2013-01-21 01:05:00,
2013-01-20 17:10:00,57.0,25.8,29.20,SSW,203,0.0,3.0,30,0.00,SKC,SKC,0.00,WeatherDisplay:10.37,2013-01-21 01:10:00,
2013-01-20 17:15:00,56.2,25.2,29.20,SSW,203,0.0,2.0,30,0.00,SKC,SKC,0.00,WeatherDisplay:10.37,2013-01-21 01:15:00,
2013-01-20 17:20:00,55.7,24.7,29.20,SSW,202,0.0,3.0,30,0.00,SKC,SKC,0.00,WeatherDisplay:10.37,2013-01-21 01:20:00,
2013-01-20 17:25:00,55.0,24.1,29.20,SSW,201,0.0,0.0,30,0.00,SKC,SKC,0.00,WeatherDisplay:10.37,2013-01-21 01:25:00,
2013-01-20 17:30:00,54.9,24.0,29.20,SSW,200,0.0,3.0,30,0.00,SKC,SKC,0.00,WeatherDisplay:10.37,2013-01-21 01:30:00,
2013-01-20 17:35:00,54.7,23.8,29.20,SSW,199,0.0,0.0,30,0.00,SKC,SKC,0.00,WeatherDisplay:10.37,2013-01-21 01:35:00,
2013-01-20 17:40:00,54.5,23.7,29.20,South,184,1.0,4.0,30,0.00,SKC,SKC,0.00,WeatherDisplay:10.37,2013-01-21 01:40:00,
2013-01-20 17:45:00,54.3,23.5,29.20,SSE,152,0.0,3.0,30,0.00,SKC,SKC,0.00,WeatherDisplay:10.37,2013-01-21 01:45:00,
2013-01-20 17:50:00,54.0,23.2,29.20,SE,140,0.0,0.0,30,0.00,SKC,SKC,0.00,WeatherDisplay:10.37,2013-01-21 01:50:00,
2013-01-20 18:00:00,53.4,23.5,29.20,SE,140,0.0,0.0,31,0.00,SKC,SKC,0.00,WeatherDisplay:10.37,2013-01-21 02:00:00,
2013-01-20 18:05:00,52.9,23.0,29.20,SE,140,0.0,0.0,31,0.00,SKC,SKC,0.00,WeatherDisplay:10.37,2013-01-21 02:05:00,
2013-01-20 18:10:00,52.4,22.6,29.20,SE,129,0.0,0.0,31,0.00,SKC,SKC,0.00,WeatherDisplay:10.37,2013-01-21 02:10:00,
2013-01-20 18:20:00,51.8,22.1,29.20,ENE,70,0.0,0.0,31,0.00,SKC,SKC,0.00,WeatherDisplay:10.37,2013-01-21 02:20:00,
2013-01-20 18:25:00,51.4,21.7,29.20,NNE,29,0.0,0.0,31,0.00,SKC,SKC,0.00,WeatherDisplay:10.37,2013-01-21 02:25:00,
2013-01-20 18:30:00,51.1,21.5,29.20,NNE,23,0.0,0.0,31,0.00,SKC,SKC,0.00,WeatherDisplay:10.37,2013-01-21 02:30:00,
2013-01-20 18:35:00,50.9,21.3,29.20,NNE,23,0.0,0.0,31,0.00,SKC,SKC,0.00,WeatherDisplay:10.37,2013-01-21 02:35:00,
2013-01-20 18:40:00,50.7,23.3,29.20,NNE,25,0.0,0.0,34,0.00,SKC,SKC,0.00,WeatherDisplay:10.37,2013-01-21 02:40:00,
2013-01-20 18:45:00,50.4,23.0,29.20,NNE,25,0.0,0.0,34,0.00,SKC,SKC,0.00,WeatherDisplay:10.37,2013-01-21 02:45:00,
2013-01-20 18:50:00,50.2,22.9,29.20,NNE,22,2.0,3.0,34,0.00,SKC,SKC,0.00,WeatherDisplay:10.37,2013-01-21 02:50:00,
2013-01-20 18:55:00,50.0,22.7,29.20,NNE,22,0.0,3.0,34,0.00,SKC,SKC,0.00,WeatherDisplay:10.37,2013-01-21 02:55:00,
2013-01-20 19:00:00,49.8,22.5,29.20,NNE,23,0.0,3.0,34,0.00,SKC,SKC,0.00,WeatherDisplay:10.37,2013-01-21 03:00:00,
2013-01-20 19:05:00,49.6,22.4,29.20,NNE,19,0.0,3.0,34,0.00,SKC,SKC,0.00,WeatherDisplay:10.37,2013-01-21 03:05:00,
2013-01-20 19:10:00,49.5,22.2,29.20,NNE,20,2.0,3.0,34,0.00,SKC,SKC,0.00,WeatherDisplay:10.37,2013-01-21 03:10:00,
2013-01-20 19:15:00,49.5,22.2,29.20,NNE,15,0.0,3.0,34,0.00,SKC,SKC,0.00,WeatherDisplay:10.37,2013-01-21 03:15:00,
2013-01-20 19:20:00,49.3,22.1,29.20,NNE,13,0.0,3.0,34,0.00,SKC,SKC,0.00,WeatherDisplay:10.37,2013-01-21 03:20:00,
2013-01-20 19:25:00,49.3,22.1,29.20,NNE,15,0.0,0.0,34,0.00,SKC,SKC,0.00,WeatherDisplay:10.37,2013-01-21 03:25:00,
2013-01-20 19:30:00,49.3,22.1,29.20,NNE,15,0.0,3.0,34,0.00,SKC,SKC,0.00,WeatherDisplay:10.37,2013-01-21 03:30:00,
2013-01-20 19:35:00,49.5,22.2,29.20,NNE,17,0.0,4.0,34,0.00,SKC,SKC,0.00,WeatherDisplay:10.37,2013-01-21 03:35:00,
2013-01-20 19:40:00,49.6,22.4,29.20,NNE,18,0.0,3.0,34,0.00,SKC,SKC,0.00,WeatherDisplay:10.37,2013-01-21 03:40:00,
2013-01-20 19:45:00,49.6,22.4,29.20,NNE,18,0.0,0.0,34,0.00,SKC,SKC,0.00,WeatherDisplay:10.37,2013-01-21 03:45:00,
2013-01-20 19:50:00,49.6,22.4,29.20,NNE,18,0.0,0.0,34,0.00,SKC,SKC,0.00,WeatherDisplay:10.37,2013-01-21 03:50:00,
2013-01-20 19:55:00,49.5,22.2,29.20,NNE,18,0.0,0.0,34,0.00,SKC,SKC,0.00,WeatherDisplay:10.37,2013-01-21 03:55:00,
2013-01-20 20:05:00,49.3,22.1,29.20,NNE,18,0.0,0.0,34,0.00,SKC,SKC,0.00,WeatherDisplay:10.37,2013-01-21 04:05:00,
2013-01-20 20:10:00,49.1,21.9,29.20,NNE,18,0.0,0.0,34,0.00,SKC,SKC,0.00,WeatherDisplay:10.37,2013-01-21 04:10:00,
2013-01-20 20:20:00,48.9,21.7,29.20,NNE,18,0.0,0.0,34,0.00,SKC,SKC,0.00,WeatherDisplay:10.37,2013-01-21 04:20:00,
2013-01-20 20:30:00,48.7,21.6,29.20,NNE,20,2.0,4.0,34,0.00,SKC,SKC,0.00,WeatherDisplay:10.37,2013-01-21 04:30:00,
2013-01-20 20:40:00,48.9,21.7,29.20,NNE,21,0.0,3.0,34,0.00,SKC,SKC,0.00,WeatherDisplay:10.37,2013-01-21 04:40:00,
2013-01-20 20:50:00,49.1,21.9,29.20,NNE,21,2.0,3.0,34,0.00,SKC,SKC,0.00,WeatherDisplay:10.37,2013-01-21 04:50:00,
2013-01-20 20:55:00,49.1,21.9,29.20,NNE,21,0.0,3.0,34,0.00,SKC,SKC,0.00,WeatherDisplay:10.37,2013-01-21 04:55:00,
2013-01-20 21:05:00,49.0,21.8,29.20,NNE,21,2.0,4.0,34,0.00,SKC,SKC,0.00,WeatherDisplay:10.37,2013-01-21 05:05:00,
2013-01-20 21:10:00,49.1,21.9,29.20,NNE,21,2.0,3.0,34,0.00,SKC,SKC,0.00,WeatherDisplay:10.37,2013-01-21 05:10:00,
2013-01-20 21:15:00,49.1,21.9,29.20,NNE,20,0.0,3.0,34,0.00,SKC,SKC,0.00,WeatherDisplay:10.37,2013-01-21 05:15:00,
2013-01-20 21:20:00,49.1,21.9,29.20,NNE,20,0.0,3.0,34,0.00,SKC,SKC,0.00,WeatherDisplay:10.37,2013-01-21 05:20:00,
2013-01-20 21:25:00,49.1,21.9,29.24,NNE,21,0.0,0.0,34,0.00,SKC,SKC,0.00,WeatherDisplay:10.37,2013-01-21 05:25:00,
2013-01-20 21:30:00,49.1,21.9,29.24,NNE,21,0.0,0.0,34,0.00,SKC,SKC,0.00,WeatherDisplay:10.37,2013-01-21 05:30:00,
2013-01-20 21:35:00,49.1,21.9,29.24,NNE,20,0.0,0.0,34,0.00,SKC,SKC,0.00,WeatherDisplay:10.37,2013-01-21 05:35:00,
2013-01-20 21:40:00,48.8,21.6,29.24,NNE,20,0.0,0.0,34,0.00,SKC,SKC,0.00,WeatherDisplay:10.37,2013-01-21 05:40:00,
2013-01-20 21:45:00,48.7,21.6,29.24,NNE,20,0.0,0.0,34,0.00,SKC,SKC,0.00,WeatherDisplay:10.37,2013-01-21 05:45:00,
2013-01-20 21:50:00,48.7,21.6,29.24,NNE,20,0.0,0.0,34,0.00,SKC,SKC,0.00,WeatherDisplay:10.37,2013-01-21 05:50:00,
2013-01-20 21:55:00,48.7,21.6,29.24,NNE,21,0.0,0.0,34,0.00,SKC,SKC,0.00,WeatherDisplay:10.37,2013-01-21 05:55:00,
2013-01-20 22:00:00,48.7,21.6,29.24,NNE,20,0.0,0.0,34,0.00,SKC,SKC,0.00,WeatherDisplay:10.37,2013-01-21 06:00:00,
2013-01-20 22:05:00,48.7,21.6,29.24,NNE,20,0.0,0.0,34,0.00,SKC,SKC,0.00,WeatherDisplay:10.37,2013-01-21 06:05:00,
2013-01-20 22:10:00,48.7,21.6,29.24,NNE,20,0.0,0.0,34,0.00,SKC,SKC,0.00,WeatherDisplay:10.37,2013-01-21 06:10:00,
2013-01-20 22:15:00,48.7,21.6,29.24,NNE,20,0.0,0.0,34,0.00,SKC,SKC,0.00,WeatherDisplay:10.37,2013-01-21 06:15:00,
2013-01-20 22:20:00,48.9,21.7,29.24,NNE,21,0.0,0.0,34,0.00,SKC,SKC,0.00,WeatherDisplay:10.37,2013-01-21 06:20:00,
2013-01-20 22:25:00,48.9,21.7,29.24,NNE,20,0.0,0.0,34,0.00,SKC,SKC,0.00,WeatherDisplay:10.37,2013-01-21 06:25:00,
2013-01-20 22:35:00,48.9,21.7,29.24,NNE,20,0.0,0.0,34,0.00,SKC,SKC,0.00,WeatherDisplay:10.37,2013-01-21 06:35:00,
2013-01-20 22:40:00,48.7,21.6,29.24,NNE,20,0.0,0.0,34,0.00,SKC,SKC,0.00,WeatherDisplay:10.37,2013-01-21 06:40:00,
2013-01-20 22:45:00,48.7,21.6,29.24,NNE,20,1.0,3.0,34,0.00,SKC,SKC,0.00,WeatherDisplay:10.37,2013-01-21 06:45:00,
2013-01-20 22:50:00,48.7,21.6,29.24,NNE,20,3.0,4.0,34,0.00,SKC,SKC,0.00,WeatherDisplay:10.37,2013-01-21 06:50:00,
2013-01-20 23:00:00,48.7,21.6,29.24,NNE,16,2.0,3.0,34,0.00,SKC,SKC,0.00,WeatherDisplay:10.37,2013-01-21 07:00:00,
2013-01-20 23:05:00,48.7,21.6,29.24,NNE,16,2.0,4.0,34,0.00,SKC,SKC,0.00,WeatherDisplay:10.37,2013-01-21 07:05:00,
2013-01-20 23:10:00,48.7,21.6,29.20,NNE,16,2.0,3.0,34,0.00,SKC,SKC,0.00,WeatherDisplay:10.37,2013-01-21 07:10:00,
2013-01-20 23:15:00,48.7,21.6,29.20,NNE,16,0.0,3.0,34,0.00,SKC,SKC,0.00,WeatherDisplay:10.37,2013-01-21 07:15:00,
2013-01-20 23:20:00,48.7,21.6,29.20,NNE,16,1.0,3.0,34,0.00,SKC,SKC,0.00,WeatherDisplay:10.37,2013-01-21 07:20:00,
2013-01-20 23:25:00,48.7,21.6,29.20,NNE,16,0.0,2.0,34,0.00,SKC,SKC,0.00,WeatherDisplay:10.37,2013-01-21 07:25:00,
2013-01-20 23:30:00,48.7,21.6,29.20,NNE,18,3.0,4.0,34,0.00,SKC,SKC,0.00,WeatherDisplay:10.37,2013-01-21 07:30:00,
2013-01-20 23:35:00,48.7,21.6,29.20,NNE,23,2.0,4.0,34,0.00,SKC,SKC,0.00,WeatherDisplay:10.37,2013-01-21 07:35:00,
2013-01-20 23:40:00,48.9,21.7,29.20,NNE,24,1.0,3.0,34,0.00,SKC,SKC,0.00,WeatherDisplay:10.37,2013-01-21 07:40:00,
2013-01-20 23:50:00,48.9,21.7,29.20,North,8,0.0,3.0,34,0.00,SKC,SKC,0.00,WeatherDisplay:10.37,2013-01-21 07:50:00,
2013-01-20 23:55:00,48.9,21.7,29.20,North,6,0.0,2.0,34,0.00,SKC,SKC,0.00,WeatherDisplay:10.37,2013-01-21 07:55:00,